W4SNA-2 Weather Reports


time (UTC)temp
C
wind
direction
speed
KPH
gust
KPH
rain 1hr
cm
rain 24hr
cm
rain mn
cm
humidity
%
barometer
mb
20260905172500 30 326 3.2 19.3 0.00 0.00 0.00 65 1016.0
20260905172001 30 303 4.8 16.1 0.00 0.00 0.00 64 1016.2
20260905171504 30 300 4.8 14.5 0.00 0.00 0.00 63 1016.2
20260905171000 31 300 1.6 14.5 0.00 0.00 0.00 64 1016.4
20260905170502 30 299 1.6 17.7 0.00 0.00 0.00 64 1016.6
20260905170000 30 298 4.8 17.7 0.00 0.00 0.00 65 1016.6
20260905165500 30 296 4.8 17.7 0.00 0.00 0.00 65 1016.7
20260905165000 30 293 1.6 11.3 0.00 0.00 0.00 66 1016.9
20260905164519 30 293 6.4 19.3 0.00 0.00 0.00 65 1016.9
20260905164500 30 293 1.6 19.3 0.00 0.00 0.00 66 1016.9
20260905164002 30 293 6.4 19.3 0.00 0.00 0.00 65 1016.9
20260905163607 30 283 3.2 12.9 0.00 0.00 0.00 65 1016.8
20260905163502 30 283 3.2 12.9 0.00 0.00 0.00 65 1016.8
20260905163000 30 283 1.6 11.3 0.00 0.00 0.00 66 1016.8
20260905162500 30 0 0.0 11.3 0.00 0.00 0.00 69 1016.8
20260905162000 30 282 1.6 11.3 0.00 0.00 0.00 68 1016.9
20260905161836 30 0 0.0 11.3 0.00 0.00 0.00 69 1016.9
20260905161502 30 0 0.0 11.3 0.00 0.00 0.00 69 1016.9
20260905161155 30 282 1.6 9.7 0.00 0.00 0.00 68 1016.9
20260905161000 30 282 1.6 9.7 0.00 0.00 0.00 68 1016.9
20260905160533 30 282 3.2 9.7 0.00 0.00 0.00 69 1016.9
20260905160500 30 282 3.2 9.7 0.00 0.00 0.00 69 1016.9
20260905160001 30 0 0.0 6.4 0.00 0.00 0.00 67 1016.9
20260905155500 30 282 1.6 11.3 0.00 0.00 0.00 69 1017.0
20260905155001 29 0 0.0 11.3 0.00 0.00 0.00 70 1017.0
20260905154743 30 0 0.0 11.3 0.00 0.00 0.00 68 1017.0
20260905154500 30 0 0.0 9.7 0.00 0.00 0.00 67 1017.1
20260905154000 30 0 0.0 11.3 0.00 0.00 0.00 68 1017.0
20260905153501 30 0 0.0 11.3 0.00 0.00 0.00 68 1017.1
20260905153001 30 0 0.0 6.4 0.00 0.00 0.00 69 1017.0
20260905152550 30 282 3.2 9.7 0.00 0.00 0.00 68 1017.0
20260905152503 30 282 3.2 9.7 0.00 0.00 0.00 68 1017.0
20260905152001 30 282 1.6 9.7 0.00 0.00 0.00 66 1017.0
20260905151500 30 0 0.0 4.8 0.00 0.00 0.00 67 1017.1
20260905151000 30 0 0.0 4.8 0.00 0.00 0.00 68 1017.1
20260905150501 30 0 0.0 4.8 0.00 0.00 0.00 68 1017.1
20260905150001 30 0 0.0 3.2 0.00 0.00 0.00 67 1017.1
20260905145500 30 0 0.0 4.8 0.00 0.00 0.00 66 1017.1
20260905145001 30 0 0.0 4.8 0.00 0.00 0.00 67 1017.1
20260905144502 29 0 0.0 4.8 0.00 0.00 0.00 67 1017.1
20260905144001 29 0 0.0 6.4 0.00 0.00 0.00 68 1017.1
20260905143501 29 0 0.0 6.4 0.00 0.00 0.00 70 1017.1
20260905143001 28 0 0.0 6.4 0.00 0.00 0.00 70 1017.2
20260905142500 28 0 0.0 6.4 0.00 0.00 0.00 70 1017.1
20260905142000 28 0 0.0 6.4 0.00 0.00 0.00 71 1017.0
20260905141500 28 282 1.6 6.4 0.00 0.00 0.00 70 1017.0
20260905141000 28 0 0.0 16.1 0.00 0.00 0.00 70 1016.9
20260905140510 28 0 0.0 16.1 0.00 0.00 0.00 70 1016.8
20260905140000 28 0 0.0 11.3 0.00 0.00 0.00 71 1016.7
20260905135500 27 0 0.0 11.3 0.00 0.00 0.00 73 1016.7
20260905135001 27 0 0.0 9.7 0.00 0.00 0.00 72 1016.6
20260905134542 27 0 0.0 9.7 0.00 0.00 0.00 72 1016.7
20260905134500 27 0 0.0 9.7 0.00 0.00 0.00 72 1016.7
20260905134000 27 0 0.0 6.4 0.00 0.00 0.00 72 1016.8
20260905133501 27 0 0.0 12.9 0.00 0.00 0.00 72 1016.8
20260905133003 27 285 1.6 12.9 0.00 0.00 0.00 72 1016.8
20260905132500 27 0 0.0 9.7 0.00 0.00 0.00 72 1016.7
20260905132000 27 285 1.6 12.9 0.00 0.00 0.00 71 1016.8
20260905131500 27 0 0.0 12.9 0.00 0.00 0.00 72 1016.7
20260905131000 27 0 0.0 9.7 0.00 0.00 0.00 73 1016.7
20260905130057 26 0 0.0 9.7 0.00 0.00 0.00 73 1016.8
20260905125600 26 285 1.6 12.9 0.00 0.00 0.00 73 1016.8
20260905125100 26 285 4.8 12.9 0.00 0.00 0.00 73 1016.8
20260905124557 26 285 1.6 11.3 0.00 0.00 0.00 74 1016.9
20260905124058 26 285 1.6 12.9 0.00 0.00 0.00 74 1016.9
20260905123557 26 0 0.0 12.9 0.00 0.00 0.00 74 1016.9
20260905123100 26 284 1.6 12.9 0.00 0.00 0.00 75 1016.8
20260905122557 25 284 1.6 16.1 0.00 0.00 0.00 75 1016.7
20260905122057 25 284 4.8 17.7 0.00 0.00 0.00 75 1016.7
20260905121557 25 283 6.4 17.7 0.00 0.00 0.00 75 1016.6
20260905121057 25 280 6.4 12.9 0.00 0.00 0.00 75 1016.7
20260905120155 25 280 4.8 16.1 0.00 0.00 0.00 75 1016.8
20260905115652 25 280 4.8 14.5 0.00 0.00 0.00 75 1016.8
20260905115158 25 280 4.8 14.5 0.00 0.00 0.00 76 1016.7
20260905114652 25 280 4.8 11.3 0.00 0.00 0.00 76 1016.6
20260905114153 25 280 1.6 14.5 0.00 0.00 0.00 76 1016.5
20260905113653 25 280 3.2 14.5 0.00 0.00 0.00 76 1016.5
20260905113154 25 280 3.2 11.3 0.00 0.00 0.00 76 1016.5
20260905112652 25 280 1.6 9.7 0.00 0.00 0.00 76 1016.5
20260905112152 24 0 0.0 9.7 0.00 0.00 0.00 76 1016.4
20260905111652 24 0 0.0 9.7 0.00 0.00 0.00 76 1016.3
20260905111154 25 280 1.6 14.5 0.00 0.00 0.00 76 1016.3
20260905110654 25 280 4.8 14.5 0.00 0.00 0.00 75 1016.3
20260905110200 25 280 4.8 12.9 0.00 0.00 0.00 75 1016.3
20260905105652 25 279 4.8 12.9 0.00 0.00 0.00 75 1016.3
20260905105152 25 280 4.8 14.5 0.00 0.00 0.00 74 1016.3
20260905104652 25 280 4.8 14.5 0.00 0.00 0.00 74 1016.3
20260905104055 25 280 4.8 16.1 0.00 0.00 0.00 74 1016.2
20260905103555 25 280 8.0 16.1 0.00 0.00 0.00 74 1016.1
20260905103100 25 280 4.8 14.5 0.00 0.00 0.00 74 1016.1
20260905102555 25 280 6.4 14.5 0.00 0.00 0.00 74 1016.1
20260905102055 24 280 6.4 14.5 0.00 0.00 0.00 75 1016.1
20260905101555 24 280 6.4 12.9 0.00 0.00 0.00 76 1016.1
20260905101055 24 280 6.4 12.9 0.00 0.00 0.00 77 1016.1
20260905100555 24 280 4.8 12.9 0.00 0.00 0.00 77 1016.1
20260905100055 24 280 3.2 12.9 0.00 0.00 0.00 76 1016.1
20260905095555 25 280 1.6 12.9 0.00 0.00 0.00 75 1016.1
20260905095055 25 280 3.2 12.9 0.00 0.00 0.00 74 1016.1
20260905094557 25 280 3.2 12.9 0.00 0.00 0.00 74 1016.1
20260905094055 25 0 0.0 6.4 0.00 0.00 0.00 74 1016.0
20260905093555 25 280 1.6 6.4 0.00 0.00 0.00 74 1016.0
20260905093055 25 0 0.0 9.7 0.00 0.00 0.00 73 1016.0
20260905092555 25 280 3.2 9.7 0.00 0.00 0.00 73 1016.0
20260905092058 25 0 0.0 6.4 0.00 0.00 0.00 73 1016.0
20260905091555 25 0 0.0 4.8 0.00 0.00 0.00 73 1016.1
20260905091056 25 0 0.0 6.4 0.00 0.00 0.00 74 1016.1
20260905090555 24 0 0.0 9.7 0.00 0.00 0.00 75 1016.2
20260905090056 24 0 0.0 9.7 0.00 0.00 0.00 75 1016.1
20260905085555 24 280 1.6 9.7 0.00 0.00 0.00 75 1016.2
20260905084557 24 280 3.2 6.4 0.00 0.00 0.00 74 1016.2
20260905084055 25 280 1.6 9.7 0.00 0.00 0.00 75 1016.2
20260905083557 25 280 1.6 9.7 0.00 0.00 0.00 75 1016.2
20260905083055 25 0 0.0 3.2 0.00 0.00 0.00 75 1016.3
20260905082555 25 0 0.0 3.2 0.00 0.00 0.00 74 1016.4
20260905082055 25 0 0.0 3.2 0.00 0.00 0.00 75 1016.4
20260905081555 25 0 0.0 3.2 0.00 0.00 0.00 74 1016.4
20260905081055 25 0 0.0 0.0 0.00 0.00 0.00 74 1016.5
20260905080555 25 0 0.0 0.0 0.00 0.00 0.00 74 1016.5
20260905080054 25 0 0.0 0.0 0.00 0.00 0.00 74 1016.6
20260905075555 25 0 0.0 0.0 0.00 0.00 0.00 74 1016.6
20260905075055 25 0 0.0 0.0 0.00 0.00 0.00 74 1016.7
20260905074555 25 0 0.0 0.0 0.00 0.00 0.00 73 1016.7
20260905074055 25 0 0.0 0.0 0.00 0.00 0.00 73 1016.8
20260905073555 25 0 0.0 0.0 0.00 0.00 0.00 73 1016.8
20260905073055 26 0 0.0 4.8 0.00 0.00 0.00 72 1016.8
20260905072555 26 0 0.0 4.8 0.00 0.00 0.00 72 1016.9
20260905072054 26 0 0.0 0.0 0.00 0.00 0.00 72 1016.9
20260905071554 26 0 0.0 0.0 0.00 0.00 0.00 72 1017.0
20260905071054 26 0 0.0 0.0 0.00 0.00 0.00 72 1017.2
20260905070554 25 0 0.0 0.0 0.00 0.00 0.00 72 1017.2
20260905070054 25 0 0.0 0.0 0.00 0.00 0.00 73 1017.3
20260905065555 25 0 0.0 0.0 0.00 0.00 0.00 74 1017.4
20260905065055 25 0 0.0 4.8 0.00 0.00 0.00 76 1017.3
20260905064554 25 0 0.0 4.8 0.00 0.00 0.00 76 1017.3
20260905064054 25 280 3.2 4.8 0.00 0.00 0.00 75 1017.4
20260905063555 25 280 1.6 4.8 0.00 0.00 0.00 75 1017.4
20260905063055 25 0 0.0 0.0 0.00 0.00 0.00 73 1017.4
20260905062428 25 0 0.0 3.2 0.00 0.00 0.00 75 1017.5
20260905061929 25 0 0.0 1.6 0.00 0.00 0.00 75 1017.6
20260905061430 25 0 0.0 0.0 0.00 0.00 0.00 76 1017.7
20260905060928 25 0 0.0 3.2 0.00 0.00 0.00 76 1017.8
20260905060431 25 0 0.0 14.5 0.00 0.00 0.00 77 1017.9
20260905055930 25 0 0.0 14.5 0.00 0.00 0.00 77 1018.0
20260905055429 25 280 3.2 14.5 0.00 0.00 0.00 76 1018.0
20260905054928 25 280 1.6 6.4 0.00 0.00 0.00 76 1018.1
20260905054428 25 0 0.0 4.8 0.00 0.00 0.00 77 1018.4
20260905053928 25 0 0.0 0.0 0.00 0.00 0.00 78 1018.5
20260905053428 25 0 0.0 0.0 0.00 0.00 0.00 77 1018.6
20260905052928 25 0 0.0 4.8 0.00 0.00 0.00 77 1018.6
20260905052430 25 0 0.0 4.8 0.00 0.00 0.00 77 1018.5
20260905051928 25 0 0.0 6.4 0.00 0.00 0.00 76 1018.5
20260905051428 25 0 0.0 9.7 0.00 0.00 0.00 76 1018.6
20260905050928 25 280 3.2 9.7 0.00 0.00 0.00 76 1018.8
20260905050431 25 0 0.0 0.0 0.00 0.00 0.00 76 1018.8
20260905045928 25 0 0.0 0.0 0.00 0.00 0.00 77 1018.8
20260905045428 25 0 0.0 6.4 0.00 0.00 0.00 79 1018.9
20260905044928 25 0 0.0 6.4 0.00 0.00 0.00 79 1019.0
20260905044428 25 0 0.0 4.8 0.00 0.00 0.00 75 1019.0
20260905043928 25 0 0.0 11.3 0.00 0.00 0.00 73 1019.0
20260905043430 25 280 3.2 12.9 0.00 0.00 0.00 74 1019.0
20260905042928 25 280 8.0 12.9 0.00 0.00 0.00 74 1018.9
20260905042429 25 280 8.0 12.9 0.00 0.00 0.00 74 1018.8
20260905041928 25 280 8.0 12.9 0.00 0.00 0.00 75 1018.8
20260905041429 25 280 6.4 11.3 0.00 0.00 0.00 75 1018.9
20260905040930 26 280 4.8 11.3 0.00 0.00 0.00 75 1019.0
20260905040428 26 280 3.2 9.7 0.00 0.00 0.00 74 1018.9
20260905035928 26 280 1.6 9.7 0.00 0.00 0.00 73 1019.1
20260905035343 26 0 0.0 3.2 0.00 0.00 0.00 72 1019.1
20260905034811 26 0 0.0 3.2 0.00 0.00 0.00 72 1019.1
20260905033651 26 0 0.0 3.2 0.00 0.00 0.00 72 1018.8
20260905033149 26 0 0.0 3.2 0.00 0.00 0.00 72 1018.8
20260905032649 26 0 0.0 0.0 0.00 0.00 0.00 71 1018.8
20260905032149 26 0 0.0 0.0 0.00 0.00 0.00 71 1018.7
20260905031649 26 0 0.0 0.0 0.00 0.00 0.00 72 1018.7
20260905031151 26 0 0.0 0.0 0.00 0.00 0.00 72 1018.5
20260905030649 26 0 0.0 0.0 0.00 0.00 0.00 73 1018.4
20260905030149 26 0 0.0 0.0 0.00 0.00 0.00 75 1018.3
20260905025649 26 0 0.0 0.0 0.00 0.00 0.00 75 1018.3
20260905025148 26 0 0.0 0.0 0.00 0.00 0.00 77 1018.4
20260905024649 26 0 0.0 0.0 0.00 0.00 0.00 77 1018.4
20260905024149 26 0 0.0 1.6 0.00 0.00 0.00 77 1018.4
20260905023649 26 0 0.0 1.6 0.00 0.00 0.00 76 1018.3
20260905023149 26 0 0.0 4.8 0.00 0.00 0.00 75 1018.2
20260905022649 26 0 0.0 4.8 0.00 0.00 0.00 74 1017.8
20260905022149 27 0 0.0 3.2 0.00 0.00 0.00 71 1017.9
20260905021649 27 0 0.0 0.0 0.00 0.00 0.00 67 1017.9
20260905021149 27 0 0.0 0.0 0.00 0.00 0.00 67 1017.9
20260905020650 27 0 0.0 0.0 0.00 0.00 0.00 67 1017.9
20260905020149 27 0 0.0 3.2 0.00 0.00 0.00 67 1018.0
20260905015649 27 0 0.0 3.2 0.00 0.00 0.00 67 1017.9
20260905015042 27 0 0.0 9.7 0.00 0.00 0.00 68 1017.9
20260905014542 27 0 0.0 9.7 0.00 0.00 0.00 68 1017.8
20260905014043 26 0 0.0 9.7 0.00 0.00 0.00 68 1017.7
20260905013542 26 0 0.0 9.7 0.00 0.00 0.00 69 1017.6
20260905013042 26 280 1.6 9.7 0.00 0.00 0.00 69 1017.7
20260905012542 26 0 0.0 9.7 0.00 0.00 0.00 69 1017.7
20260905011742 26 0 0.0 6.4 0.00 0.00 0.00 69 1017.7
20260905011241 26 0 0.0 11.3 0.00 0.00 0.00 69 1017.6
20260905010854 26 280 1.6 11.3 0.00 0.00 0.00 69 1017.7
20260905010741 26 280 1.6 11.3 0.00 0.00 0.00 69 1017.7
20260905010242 26 280 1.6 9.7 0.00 0.00 0.00 70 1017.8
20260905005741 26 280 1.6 6.4 0.00 0.00 0.00 70 1017.7
20260905005316 26 0 0.0 4.8 0.00 0.00 0.00 70 1017.8
20260905005241 26 0 0.0 4.8 0.00 0.00 0.00 70 1017.8
20260905004741 26 0 0.0 0.0 0.00 0.00 0.00 70 1017.8
20260905004242 26 0 0.0 1.6 0.00 0.00 0.00 71 1017.9
20260905003745 26 0 0.0 1.6 0.00 0.00 0.00 72 1017.9
20260905003241 26 0 0.0 0.0 0.00 0.00 0.00 71 1018.0
20260905002741 26 0 0.0 0.0 0.00 0.00 0.00 71 1019.0
20260905002241 26 0 0.0 0.0 0.00 0.00 0.00 71 1019.0
20260905001741 26 0 0.0 0.0 0.00 0.00 0.00 72 1019.0
20260905001241 27 0 0.0 0.0 0.00 0.00 0.00 72 1019.3
20260905000741 27 0 0.0 0.0 0.00 0.00 0.00 71 1019.3
20260905000241 27 0 0.0 0.0 0.00 0.00 0.00 71 1019.4
20260904235741 27 0 0.0 1.6 0.00 0.00 0.00 71 1019.6
20260904235241 27 0 0.0 6.4 0.00 0.00 0.00 72 1019.4
20260904234741 27 0 0.0 6.4 0.00 0.00 0.00 72 1019.3
20260904234241 27 0 0.0 3.2 0.00 0.00 0.00 72 1019.3
20260904233741 27 0 0.0 3.2 0.00 0.00 0.00 71 1019.2
20260904233241 27 0 0.0 3.2 0.00 0.00 0.00 71 1019.2
20260904232745 27 0 0.0 9.7 0.00 0.00 0.00 72 1019.1
20260904232242 27 280 1.6 12.9 0.00 0.00 0.00 72 1019.2
20260904231741 27 280 6.4 16.1 0.00 0.00 0.00 71 1019.0
20260904231243 27 280 8.0 16.1 0.00 0.00 0.00 72 1018.9
20260904230741 26 280 6.4 12.9 0.00 0.00 0.00 74 1019.0
20260904230246 26 280 6.4 14.5 0.00 0.00 0.00 74 1019.2
20260904225743 26 280 4.8 14.5 0.00 0.00 0.00 74 1019.2
20260904225242 26 280 8.0 14.5 0.00 0.00 0.00 73 1019.2
20260904224741 27 280 8.0 14.5 0.00 0.00 0.00 72 1019.1
20260904224242 27 279 8.0 17.7 0.00 0.00 0.00 71 1019.0
20260904223741 27 280 9.7 17.7 0.00 0.00 0.00 71 1019.0
20260904223242 28 280 4.8 11.3 0.00 0.00 0.00 71 1019.1
20260904222741 28 0 0.0 6.4 0.00 0.00 0.00 67 1019.0
20260904222242 28 280 1.6 9.7 0.00 0.00 0.00 67 1018.9
20260904221741 28 0 0.0 9.7 0.00 0.00 0.00 67 1018.9
20260904221245 28 280 1.6 9.7 0.00 0.00 0.00 67 1018.8
20260904220741 28 0 0.0 6.4 0.00 0.00 0.00 68 1018.8
20260904220241 28 0 0.0 6.4 0.00 0.00 0.00 70 1019.0
20260904215741 28 0 0.0 12.9 0.00 0.00 0.00 68 1019.0
20260904215241 28 280 3.2 12.9 0.00 0.00 0.00 68 1019.0
20260904214741 28 280 4.8 12.9 0.00 0.00 0.00 69 1019.0
20260904214241 29 280 1.6 11.3 0.00 0.00 0.00 73 1019.1
20260904213741 29 280 1.6 12.9 0.00 0.00 0.00 72 1019.0
20260904213241 29 280 3.2 12.9 0.00 0.00 0.00 71 1018.9
20260904212741 30 280 3.2 12.9 0.00 0.00 0.00 70 1018.9
20260904212241 30 280 3.2 12.9 0.00 0.00 0.00 68 1018.7
20260904211741 31 280 3.2 14.5 0.00 0.00 0.00 68 1018.6
20260904211243 31 280 4.8 14.5 0.00 0.00 0.00 67 1018.6
20260904210922 32 0 0.0 11.3 0.00 0.00 0.00 63 1018.5
20260904210742 31 280 1.6 12.9 0.00 0.00 0.00 67 1018.6
20260904210241 31 280 3.2 12.9 0.00 0.00 0.00 64 1018.5
20260904205741 32 0 0.0 11.3 0.00 0.00 0.00 63 1018.5
20260904205241 32 0 0.0 9.7 0.00 0.00 0.00 63 1018.6
20260904204741 32 280 3.2 9.7 0.00 0.00 0.00 62 1018.4
20260904204241 32 0 0.0 4.8 0.00 0.00 0.00 63 1018.6
20260904203741 32 0 0.0 4.8 0.00 0.00 0.00 63 1018.5
20260904203241 31 0 0.0 9.7 0.00 0.00 0.00 64 1018.4
20260904202741 32 280 1.6 9.7 0.00 0.00 0.00 63 1018.5
20260904202241 32 0 0.0 9.7 0.00 0.00 0.00 62 1018.7
20260904201741 32 0 0.0 4.8 0.00 0.00 0.00 62 1018.7
20260904201241 32 0 0.0 1.6 0.00 0.00 0.00 60 1018.5
20260904200741 32 0 0.0 1.6 0.00 0.00 0.00 59 1018.5
20260904200241 32 0 0.0 1.6 0.00 0.00 0.00 58 1018.7
20260904195741 33 0 0.0 1.6 0.00 0.00 0.00 58 1018.7
20260904195241 33 0 0.0 3.2 0.00 0.00 0.00 57 1018.6
20260904194741 33 0 0.0 4.8 0.00 0.00 0.00 57 1018.7
20260904194241 33 0 0.0 6.4 0.00 0.00 0.00 57 1018.8
20260904193741 33 280 1.6 9.7 0.00 0.00 0.00 57 1018.9
20260904193241 33 280 1.6 9.7 0.00 0.00 0.00 56 1019.0
20260904192741 33 0 0.0 9.7 0.00 0.00 0.00 56 1019.0
20260904192606 33 280 3.2 9.7 0.00 0.00 0.00 55 1019.1
20260904192241 33 280 3.2 9.7 0.00 0.00 0.00 55 1019.1
20260904191741 33 0 0.0 6.4 0.00 0.00 0.00 56 1019.2
20260904191241 33 0 0.0 11.3 0.00 0.00 0.00 55 1019.3
20260904191155 33 0 0.0 4.8 0.00 0.00 0.00 53 1019.6
20260904190741 33 280 3.2 11.3 0.00 0.00 0.00 54 1019.5
20260904190241 33 0 0.0 4.8 0.00 0.00 0.00 53 1019.6
20260904185741 33 0 0.0 6.4 0.00 0.00 0.00 54 1019.7
20260904185241 33 280 1.6 6.4 0.00 0.00 0.00 54 1019.7
20260904184741 33 0 0.0 4.8 0.00 0.00 0.00 56 1019.8
20260904184241 33 280 1.6 4.8 0.00 0.00 0.00 57 1019.8
20260904183741 33 280 1.6 9.7 0.00 0.00 0.00 58 1019.9
20260904183241 32 280 3.2 14.5 0.00 0.00 0.00 58 1019.9
20260904182741 32 280 3.2 14.5 0.00 0.00 0.00 59 1020.1
20260904182241 32 280 3.2 9.7 0.00 0.00 0.00 58 1020.2
20260904181741 33 280 1.6 9.7 0.00 0.00 0.00 56 1020.2
20260904181241 33 280 1.6 9.7 0.00 0.00 0.00 57 1020.3
20260904180741 32 0 0.0 11.3 0.00 0.00 0.00 57 1020.4
20260904180242 32 280 3.2 11.3 0.00 0.00 0.00 59 1020.5
20260904175741 32 280 1.6 6.4 0.00 0.00 0.00 59 1020.5
20260904175241 32 0 0.0 16.1 0.00 0.00 0.00 58 1020.6
20260904174741 32 280 1.6 16.1 0.00 0.00 0.00 58 1020.7
20260904174241 32 280 1.6 11.3 0.00 0.00 0.00 57 1020.7
20260904173741 32 280 1.6 11.3 0.00 0.00 0.00 58 1020.8
20260904173241 32 280 3.2 9.7 0.00 0.00 0.00 58 1020.8